Location: Roland
(31.1349°N, 85.4372°W)
Time: 04:48:08
(UTC+00:00)

Vanguard 2 Rocket - Pass Details

Date: 02 December 2021
Orbit: 554 x 3324 km, 32.9° (Epoch: 16 January)

Event Time Altitude Azimuth Distance (km) Brightness Sun altitude
Rises 00:41:38 0° 259° (W) 3,470 11.3 -25.7°
Reaches altitude 10° 00:43:41 10° 259° (W) 2,748 10.4 -26.1°
Maximum altitude 00:50:25 88° 348° (NNW) 1,426 7.7 -27.6°
Enters shadow 00:53:32 51° 77° (ENE) 1,993 8.1 -28.2°
